Yaogan 43-01-03

operational
NORAD ID: 60460 Int'l Des: 2024-148 Owner: ZZB Country: CN Constellation: yaogan
LEOCIRCULAR

关于 Yaogan 43-01-03

正在加载描述...

实时位置

正在加载3D地球...

即将过境

高度历史

Altitude vs Time

uPlot chart will show altitude changes over time

两行轨道根数

1 60460U 24148C 26063.21447353 .00016179 00000-0 66962-3 0 9997
2 60460 34.9991 102.8139 0005840 323.2914 36.7400 15.23088827 86129
Epoch: Mar 4, 2026 • Age: 22 hours

当前状态

高度 492.3 km
速度 7.62 km/s
星下点 -3.95°S, 46.36°W
发射日期 Aug 16, 2024
运行时间 1.5 years
类型 military

技术详情

分类 Payload
质量 300.00 kg
干质量 300.00 kg
总质量 300.00 kg
长度 2.50 m
直径 2.50 m
跨度 5.00 m
形状 Box + 2 Pan
制造商 SAST
阶段状态 In Orbit
所有者/国家 ZZB/CN

大型星座

Loading constellations...